Cloud_Cover
94 2 0 0 0 0 0 0 0 0 0 0 0 0 0 0 0 0 0 0 0 0 0 0 0 0 0 0 0 0 0 3 5 5 5 1 0 5 5 5 5 12 5
100 100 92 5 0 0 0 0 0 0 0 0 0 0 0 0 0 0 0 0 0 0 0 0 0 0 0 0 0 0 5 5 5 5 4 3 2 3 5 5 5 68 28
100 100 100 100 7 0 0 0 0 0 0 0 0 0 0 0 0 0 0 0 0 0 0 0 0 0 0 0 0 3 5 5 5 5 5 5 5 5 5 5 5 0 5
100 100 100 100 80 16 1 0 0 0 0 0 0 0 0 0 0 0 0 0 0 0 0 0 0 0 0 0 3 5 5 5 5 5 4 5 5 5 5 14 78 92 95
96 100 100 100 100 100 39 1 0 0 0 0 0 0 0 0 0 0 0 0 0 0 0 0 0 0 0 0 1 0 5 5 5 5 7 6 5 5 23 96 100 100 100
100 100 100 100 100 100 100 9 2 0 0 0 0 0 0 0 0 0 0 0 0 0 0 0 0 0 1 3 5 8 8 5 6 93 100 92 5 5 40 100 100 100 100
100 100 100 100 100 100 100 41 100 42 5 3 1 0 0 0 0 0 0 0 0 0 0 0 0 0 0 2 5 5 7 17 61 99 70 99 20 8 99 100 100 100 100
100 100 100 100 100 100 100 100 91 100 99 51 29 5 5 2 0 0 0 0 0 0 3 0 0 0 5 5 5 5 22 4 5 12 24 5 16 97 100 100 100 100 100
100 100 100 100 100 100 100 100 39 100 100 88 99 18 36 5 3 0 0 0 0 2 5 5 0 3 5 5 6 29 37 3 5 27 3 15 100 100 100 100 100 100 100
100 97 100 100 100 100 100 100 100 100 100 100 100 100 30 7 11 4 5 5 2 2 5 5 5 5 5 4 5 87 5 5 5 2 5 91 94 100 100 100 100 100 100
100 98 100 100 100 100 100 100 100 100 100 100 99 90 84 94 100 73 7 5 5 5 5 5 5 5 5 5 40 8 6 5 3 5 56 100 98 100 100 100 100 100 100
100 82 100 100 100 100 100 100 100 100 100 100 89 97 99 100 100 94 40 58 45 28 8 15 10 12 5 6 53 5 5 2 20 5 100 99 100 100 100 100 100 100 100
85 36 100 100 100 100 100 100 100 100 100 89 83 100 100 100 100 100 100 100 100 100 83 24 40 40 5 10 52 5 2 30 8 94 99 100 100 100 100 100 100 100 100
99 40 100 100 100 100 100 95 100 100 62 49 25 100 100 100 100 100 100 100 100 100 100 18 58 5 10 77 16 4 5 19 23 82 83 100 100 100 100 100 100 100 100
95 87 52 100 100 100 100 100 100 100 93 100 72 100 100 100 100 100 100 100 100 100 78 53 22 42 98 85 5 5 5 25 7 98 99 99 100 100 100 100 100 100 100
100 63 63 99 100 100 100 100 100 100 100 100 100 87 92 100 100 100 100 100 100 100 94 65 20 9 100 93 5 5 5 27 6 100 100 100 100 100 100 100 100 100 100
100 100 100 100 100 100 100 100 100 100 100 88 22 39 100 100 100 100 100 100 100 100 68 32 95 100 65 16 8 5 1 25 96 100 77 100 100 100 100 100 100 100 100
100 100 100 100 100 100 100 97 100 100 100 100 100 100 100 100 100 100 100 100 100 100 28 82 92 100 87 5 14 7 5 7 100 100 84 100 100 100 100 100 100 100 100
100 100 100 100 100 100 100 100 100 100 100 100 100 100 100 100 100 100 100 100 100 95 42 60 96 100 21 6 12 25 5 24 98 100 56 100 100 100 100 100 100 100 100
100 100 100 100 100 100 100 100 100 77 100 100 100 100 100 100 100 100 100 100 100 100 89 92 100 100 48 26 8 11 6 97 93 100 36 100 100 100 100 100 100 100 100
100 100 100 100 100 100 100 99 100 100 100 100 100 100 100 100 100 100 100 100 100 100 100 100 100 100 39 68 92 5 6 23 68 100 30 100 100 100 100 100 100 100 100
100 100 100 100 100 100 100 100 100 100 100 100 100 100 100 100 100 100 100 100 100 100 100 100 99 98 100 100 76 9 5 75 54 86 16 61 100 100 100 100 100 100 100
100 100 100 100 100 100 100 100 100 100 100 100 100 100 100 100 100 100 97 100 100 100 100 100 100 100 100 100 100 89 9 13 47 98 100 34 100 100 100 100 100 100 100
100 100 100 100 100 100 100 100 100 100 100 100 100 100 100 100 98 100 100 100 100 100 100 100 100 100 100 100 90 34 85 5 59 58 96 97 99 100 100 100 100 100 100
100 100 100 100 100 100 100 100 100 100 100 100 100 100 100 100 100 100 100 100 100 100 100 100 100 100 100 93 68 24 5 5 43 100 100 100 99 100 100 100 100 100 100
100 100 100 100 100 100 100 100 100 100 100 100 100 100 100 100 100 100 100 100 100 100 100 100 88 66 100 97 52 5 5 22 49 100 100 100 100 100 100 100 100 100 100